Time,TemperatureF,DewpointF,PressureIn,WindDirection,WindDirectionDegrees,WindSpeedMPH,WindSpeedGustMPH,Humidity,HourlyPrecipIn,Conditions,Clouds,dailyrainin,SoftwareType,DateUTC
2013-01-01 00:00:00,22.2,19.8,30.14,NNE,24,2.0,4.0,90,0.00,RA,,0.00,WeatherDisplay:10.37,2013-01-01 06:00:00,
2013-01-01 00:05:00,22.4,19.9,30.15,NNE,22,1.0,4.0,90,0.00,RA,,0.00,WeatherDisplay:10.37,2013-01-01 06:05:00,
2013-01-01 00:11:00,22.4,19.9,30.15,North,10,2.0,4.0,90,0.00,RA,,0.00,WeatherDisplay:10.37,2013-01-01 06:11:00,
2013-01-01 00:20:00,22.2,19.7,30.15,NNE,20,2.0,7.0,90,0.00,OVC,,0.00,WeatherDisplay:10.37,2013-01-01 06:20:00,
2013-01-01 00:25:00,22.2,19.7,30.15,NNE,26,1.0,6.0,90,0.00,OVC,,0.00,WeatherDisplay:10.37,2013-01-01 06:25:00,
2013-01-01 00:35:00,22.2,19.7,30.14,NNE,27,2.0,5.0,90,0.00,OVC,,0.00,WeatherDisplay:10.37,2013-01-01 06:35:00,
2013-01-01 00:40:00,22.2,19.7,30.14,NNE,20,1.0,8.0,90,0.00,OVC,,0.00,WeatherDisplay:10.37,2013-01-01 06:40:00,
2013-01-01 00:45:00,22.1,19.6,30.15,NNE,33,3.0,8.0,90,0.00,OVC,,0.00,WeatherDisplay:10.37,2013-01-01 06:45:00,
2013-01-01 00:55:00,21.9,19.4,30.14,NE,36,2.0,6.0,90,0.00,OVC,,0.00,WeatherDisplay:10.37,2013-01-01 06:55:00,
2013-01-01 01:00:00,21.8,19.3,30.14,NNE,20,1.0,5.0,90,0.00,OVC,,0.00,WeatherDisplay:10.37,2013-01-01 07:00:00,
2013-01-01 01:05:00,21.8,19.1,30.14,North,0,2.0,4.0,89,0.00,OVC,,0.00,WeatherDisplay:10.37,2013-01-01 07:05:00,
2013-01-01 01:15:00,21.8,19.1,30.15,NNE,15,1.0,6.0,89,0.00,-SN,,0.00,WeatherDisplay:10.37,2013-01-01 07:15:00,
2013-01-01 01:20:00,21.6,19.1,30.15,NNE,19,2.0,7.0,90,0.00,-SN,,0.00,WeatherDisplay:10.37,2013-01-01 07:20:00,
2013-01-01 01:25:00,21.6,19.1,30.16,NNE,20,2.0,4.0,90,0.00,-SN,,0.00,WeatherDisplay:10.37,2013-01-01 07:25:00,
2013-01-01 01:35:00,21.6,19.1,30.16,NNE,16,1.0,4.0,90,0.00,-SN,,0.00,WeatherDisplay:10.37,2013-01-01 07:35:00,
2013-01-01 01:40:00,21.5,18.8,30.16,NNW,348,2.0,4.0,89,0.00,-SN,,0.00,WeatherDisplay:10.37,2013-01-01 07:40:00,
2013-01-01 01:45:00,21.2,18.5,30.17,NW,317,2.0,4.0,89,0.00,-SN,,0.00,WeatherDisplay:10.37,2013-01-01 07:45:00,
2013-01-01 01:55:00,20.7,18.0,30.16,NW,326,1.0,5.0,89,0.00,OVC,,0.00,WeatherDisplay:10.37,2013-01-01 07:55:00,
2013-01-01 02:05:00,20.4,17.7,30.16,NNW,340,2.0,5.0,89,0.00,OVC,,0.00,WeatherDisplay:10.37,2013-01-01 08:05:00,
2013-01-01 02:10:00,20.4,17.4,30.17,North,351,2.0,7.0,88,0.00,OVC,,0.00,WeatherDisplay:10.37,2013-01-01 08:10:00,
2013-01-01 02:20:00,20.0,17.0,30.17,North,9,2.0,6.0,88,0.00,OVC,,0.00,WeatherDisplay:10.37,2013-01-01 08:20:00,
2013-01-01 02:25:00,20.0,17.0,30.17,North,11,1.0,5.0,88,0.00,OVC,,0.00,WeatherDisplay:10.37,2013-01-01 08:25:00,
2013-01-01 02:35:00,19.9,16.9,30.18,NNE,23,3.0,6.0,88,0.00,OVC,,0.00,WeatherDisplay:10.37,2013-01-01 08:35:00,
2013-01-01 02:40:00,20.0,17.0,30.18,NE,34,2.0,5.0,88,0.00,OVC,,0.00,WeatherDisplay:10.37,2013-01-01 08:40:00,
2013-01-01 02:45:00,20.0,17.0,30.17,NNE,26,3.0,5.0,88,0.00,OVC,,0.00,WeatherDisplay:10.37,2013-01-01 08:45:00,
2013-01-01 02:50:00,20.0,17.0,30.18,NNE,23,3.0,8.0,88,0.00,OVC,,0.00,WeatherDisplay:10.37,2013-01-01 08:50:00,
2013-01-01 02:55:00,19.9,16.9,30.18,NNE,21,3.0,7.0,88,0.00,OVC,,0.00,WeatherDisplay:10.37,2013-01-01 08:55:00,
2013-01-01 03:05:00,19.7,16.7,30.18,NNE,22,2.0,5.0,88,0.00,OVC,,0.00,WeatherDisplay:10.37,2013-01-01 09:05:00,
2013-01-01 03:15:00,19.4,16.4,30.17,North,354,1.0,6.0,88,0.00,OVC,,0.00,WeatherDisplay:10.37,2013-01-01 09:15:00,
2013-01-01 03:20:00,19.2,16.2,30.18,NNE,15,3.0,8.0,88,0.00,OVC,,0.00,WeatherDisplay:10.37,2013-01-01 09:20:00,
2013-01-01 03:30:00,19.1,16.1,30.17,NNE,15,2.0,8.0,88,0.00,OVC,,0.00,WeatherDisplay:10.37,2013-01-01 09:30:00,
2013-01-01 03:40:00,19.1,16.1,30.17,NNE,22,2.0,10.0,88,0.00,OVC,,0.00,WeatherDisplay:10.37,2013-01-01 09:40:00,
2013-01-01 03:45:00,18.9,15.9,30.17,NNE,24,3.0,7.0,88,0.00,OVC,,0.00,WeatherDisplay:10.37,2013-01-01 09:45:00,
2013-01-01 03:50:00,18.9,15.7,30.17,NNE,18,3.0,12.0,87,0.00,OVC,,0.00,WeatherDisplay:10.37,2013-01-01 09:50:00,
2013-01-01 03:55:00,18.7,15.5,30.16,NNE,13,2.0,9.0,87,0.00,OVC,,0.00,WeatherDisplay:10.37,2013-01-01 09:55:00,
2013-01-01 04:05:00,18.3,15.1,30.15,NNE,24,5.0,9.0,87,0.00,OVC,,0.00,WeatherDisplay:10.37,2013-01-01 10:05:00,
2013-01-01 04:10:00,18.0,14.5,30.15,NNE,18,6.0,9.0,86,0.00,OVC,,0.00,WeatherDisplay:10.37,2013-01-01 10:10:00,
2013-01-01 04:15:00,17.8,14.3,30.15,NNE,18,5.0,12.0,86,0.00,OVC,,0.00,WeatherDisplay:10.37,2013-01-01 10:15:00,
2013-01-01 04:20:00,17.6,13.9,30.16,NNE,17,6.0,12.0,85,0.00,OVC,,0.00,WeatherDisplay:10.37,2013-01-01 10:20:00,
2013-01-01 04:25:00,17.5,13.8,30.17,NNE,20,2.0,6.0,85,0.00,OVC,,0.00,WeatherDisplay:10.37,2013-01-01 10:25:00,
2013-01-01 04:30:00,17.4,13.7,30.17,NNE,31,3.0,6.0,85,0.00,OVC,,0.00,WeatherDisplay:10.37,2013-01-01 10:30:00,
2013-01-01 04:40:00,17.2,13.2,30.17,NNE,20,5.0,9.0,84,0.00,OVC,,0.00,WeatherDisplay:10.37,2013-01-01 10:40:00,
2013-01-01 04:45:00,17.0,13.0,30.16,NNE,28,2.0,8.0,84,0.00,OVC,,0.00,WeatherDisplay:10.37,2013-01-01 10:45:00,
2013-01-01 04:50:00,17.0,12.8,30.17,NNE,23,3.0,7.0,83,0.00,OVC,,0.00,WeatherDisplay:10.37,2013-01-01 10:50:00,
2013-01-01 05:00:00,16.7,12.5,30.17,NNE,18,1.0,4.0,83,0.00,OVC,,0.00,WeatherDisplay:10.37,2013-01-01 11:00:00,
2013-01-01 05:05:00,16.6,12.3,30.17,NNE,20,1.0,4.0,83,0.00,OVC,,0.00,WeatherDisplay:10.37,2013-01-01 11:05:00,
2013-01-01 05:10:00,16.4,12.1,30.17,NNE,19,3.0,5.0,83,0.00,OVC,,0.00,WeatherDisplay:10.37,2013-01-01 11:10:00,
2013-01-01 05:15:00,16.2,11.9,30.17,NNE,25,3.0,7.0,83,0.00,OVC,,0.00,WeatherDisplay:10.37,2013-01-01 11:15:00,
2013-01-01 05:25:00,16.1,11.8,30.17,NNE,28,3.0,7.0,83,0.00,OVC,,0.00,WeatherDisplay:10.37,2013-01-01 11:25:00,
2013-01-01 05:30:00,15.9,11.7,30.17,NNE,18,3.0,7.0,83,0.00,OVC,,0.00,WeatherDisplay:10.37,2013-01-01 11:30:00,
2013-01-01 05:35:00,15.7,11.8,30.17,NNE,20,5.0,8.0,84,0.00,OVC,,0.00,WeatherDisplay:10.37,2013-01-01 11:35:00,
2013-01-01 05:40:00,15.6,11.4,30.17,NNE,22,2.0,6.0,83,0.00,OVC,,0.00,WeatherDisplay:10.37,2013-01-01 11:40:00,
2013-01-01 05:50:00,15.4,11.2,30.19,NNE,30,1.0,6.0,83,0.00,OVC,,0.00,WeatherDisplay:10.37,2013-01-01 11:50:00,
2013-01-01 05:55:00,15.3,11.3,30.19,NNE,32,2.0,5.0,84,0.00,OVC,,0.00,WeatherDisplay:10.37,2013-01-01 11:55:00,
2013-01-01 06:05:00,14.9,10.7,30.18,NNE,31,2.0,3.0,83,0.00,OVC,,0.00,WeatherDisplay:10.37,2013-01-01 12:05:00,
2013-01-01 06:10:00,14.8,10.6,30.19,NNE,22,1.0,5.0,83,0.00,OVC,,0.00,WeatherDisplay:10.37,2013-01-01 12:10:00,
2013-01-01 06:20:00,14.6,10.4,30.19,NNE,21,2.0,5.0,83,0.00,OVC,,0.00,WeatherDisplay:10.37,2013-01-01 12:20:00,
2013-01-01 06:30:00,14.5,10.2,30.20,NNE,24,1.0,3.0,83,0.00,OVC,,0.00,WeatherDisplay:10.37,2013-01-01 12:30:00,
2013-01-01 06:35:00,14.3,10.1,30.20,NNE,12,2.0,6.0,83,0.00,OVC,,0.00,WeatherDisplay:10.37,2013-01-01 12:35:00,
2013-01-01 06:40:00,14.1,9.9,30.21,North,5,0.0,3.0,83,0.00,OVC,,0.00,WeatherDisplay:10.37,2013-01-01 12:40:00,
2013-01-01 06:45:00,14.0,9.8,30.21,NNE,22,1.0,3.0,83,0.00,OVC,,0.00,WeatherDisplay:10.37,2013-01-01 12:45:00,
2013-01-01 06:50:00,14.0,9.8,30.21,NNE,22,2.0,4.0,83,0.00,OVC,,0.00,WeatherDisplay:10.37,2013-01-01 12:50:00,
2013-01-01 06:55:00,13.8,9.6,30.21,NNE,22,1.0,4.0,83,0.00,OVC,,0.00,WeatherDisplay:10.37,2013-01-01 12:55:00,
2013-01-01 07:05:00,13.6,9.4,30.22,NNE,23,1.0,5.0,83,0.00,CLR,,0.00,WeatherDisplay:10.37,2013-01-01 13:05:00,
2013-01-01 07:10:00,13.5,9.3,30.22,NNE,24,1.0,4.0,83,0.00,CLR,,0.00,WeatherDisplay:10.37,2013-01-01 13:10:00,
2013-01-01 07:20:00,13.3,9.1,30.22,NNE,24,0.0,3.0,83,0.00,CLR,,0.00,WeatherDisplay:10.37,2013-01-01 13:20:00,
2013-01-01 07:25:00,13.1,8.9,30.22,NNE,24,0.0,2.0,83,0.00,CLR,,0.00,WeatherDisplay:10.37,2013-01-01 13:25:00,
2013-01-01 07:30:00,13.0,8.5,30.23,NNE,23,0.0,2.0,82,0.00,CLR,,0.00,WeatherDisplay:10.37,2013-01-01 13:30:00,
2013-01-01 07:35:00,12.8,8.3,30.23,NNE,22,0.0,1.0,82,0.00,CLR,,0.00,WeatherDisplay:10.37,2013-01-01 13:35:00,
2013-01-01 07:40:00,12.6,8.2,30.24,NNE,22,0.0,2.0,82,0.00,CLR,,0.00,WeatherDisplay:10.37,2013-01-01 13:40:00,
2013-01-01 07:45:00,12.5,8.0,30.25,NNE,22,0.0,1.0,82,0.00,CLR,,0.00,WeatherDisplay:10.37,2013-01-01 13:45:00,
2013-01-01 07:50:00,12.6,8.5,30.25,NNE,22,0.0,1.0,83,0.00,CLR,,0.00,WeatherDisplay:10.37,2013-01-01 13:50:00,
2013-01-01 07:55:00,12.7,8.5,30.25,NNE,22,0.0,1.0,83,0.00,CLR,,0.00,WeatherDisplay:10.37,2013-01-01 13:55:00,
2013-01-01 08:05:00,12.5,8.3,30.25,NNE,22,0.0,1.0,83,0.00,CLR,,0.00,WeatherDisplay:10.37,2013-01-01 14:05:00,
2013-01-01 08:10:00,12.3,8.1,30.25,NNE,22,0.0,1.0,83,0.00,CLR,,0.00,WeatherDisplay:10.37,2013-01-01 14:10:00,
2013-01-01 08:15:00,12.5,8.3,30.25,NNE,22,0.0,2.0,83,0.00,OVC,,0.00,WeatherDisplay:10.37,2013-01-01 14:15:00,
2013-01-01 08:25:00,12.7,8.5,30.25,NNE,22,1.0,3.0,83,0.00,OVC,,0.00,WeatherDisplay:10.37,2013-01-01 14:25:00,
2013-01-01 08:30:00,13.0,9.1,30.25,NNE,22,0.0,2.0,84,0.00,OVC,,0.00,WeatherDisplay:10.37,2013-01-01 14:30:00,
2013-01-01 08:40:00,13.5,9.5,30.26,NNE,22,1.0,2.0,84,0.00,OVC,,0.00,WeatherDisplay:10.37,2013-01-01 14:40:00,
2013-01-01 08:45:00,13.7,9.7,30.26,NNE,22,0.0,3.0,84,0.00,OVC,,0.00,WeatherDisplay:10.37,2013-01-01 14:45:00,
2013-01-01 08:50:00,13.9,10.0,30.27,NNE,21,0.0,2.0,84,0.00,OVC,,0.00,WeatherDisplay:10.37,2013-01-01 14:50:00,
2013-01-01 08:55:00,14.1,9.8,30.26,NNE,21,1.0,3.0,83,0.00,OVC,,0.00,WeatherDisplay:10.37,2013-01-01 14:55:00,
2013-01-01 09:05:00,14.3,10.0,30.26,NNE,26,1.0,3.0,83,0.00,OVC,,0.00,WeatherDisplay:10.37,2013-01-01 15:05:00,
2013-01-01 09:10:00,14.3,10.1,30.26,NNE,26,2.0,5.0,83,0.00,OVC,,0.00,WeatherDisplay:10.37,2013-01-01 15:10:00,
2013-01-01 09:15:00,14.6,10.4,30.26,NNE,20,2.0,6.0,83,0.00,OVC,,0.00,WeatherDisplay:10.37,2013-01-01 15:15:00,
2013-01-01 09:20:00,14.8,10.6,30.26,North,1,1.0,5.0,83,0.00,OVC,,0.00,WeatherDisplay:10.37,2013-01-01 15:20:00,
2013-01-01 09:30:00,15.2,11.0,30.26,NE,44,2.0,5.0,83,0.00,OVC,,0.00,WeatherDisplay:10.37,2013-01-01 15:30:00,
2013-01-01 09:40:00,15.6,10.8,30.26,NE,34,2.0,5.0,81,0.00,OVC,,0.00,WeatherDisplay:10.37,2013-01-01 15:40:00,
2013-01-01 09:45:00,15.9,11.1,30.26,NNE,24,2.0,7.0,81,0.00,OVC,,0.00,WeatherDisplay:10.37,2013-01-01 15:45:00,
2013-01-01 09:50:00,16.2,11.4,30.26,NNE,20,2.0,4.0,81,0.00,OVC,,0.00,WeatherDisplay:10.37,2013-01-01 15:50:00,
2013-01-01 10:00:00,17.0,12.2,30.26,North,2,2.0,4.0,81,0.00,OVC,,0.00,WeatherDisplay:10.37,2013-01-01 16:00:00,
2013-01-01 10:05:00,17.5,12.4,30.26,NNW,348,2.0,4.0,80,0.00,OVC,,0.00,WeatherDisplay:10.37,2013-01-01 16:05:00,
2013-01-01 10:10:00,18.1,13.0,30.27,North,349,2.0,5.0,80,0.00,OVC,,0.00,WeatherDisplay:10.37,2013-01-01 16:10:00,
2013-01-01 10:15:00,18.4,13.0,30.27,NNW,345,2.0,5.0,79,0.00,OVC,,0.00,WeatherDisplay:10.37,2013-01-01 16:15:00,
2013-01-01 10:20:00,18.9,13.5,30.27,NNW,347,3.0,5.0,79,0.00,OVC,,0.00,WeatherDisplay:10.37,2013-01-01 16:20:00,
2013-01-01 10:25:00,19.4,13.4,30.27,NNE,13,1.0,6.0,77,0.00,OVC,,0.00,WeatherDisplay:10.37,2013-01-01 16:25:00,
2013-01-01 10:30:00,19.7,13.7,30.27,North,11,1.0,5.0,77,0.00,OVC,,0.00,WeatherDisplay:10.37,2013-01-01 16:30:00,
2013-01-01 10:35:00,20.2,13.8,30.28,North,1,2.0,4.0,76,0.00,OVC,,0.00,WeatherDisplay:10.37,2013-01-01 16:35:00,
2013-01-01 10:40:00,20.4,13.7,30.27,North,6,2.0,5.0,75,0.00,OVC,,0.00,WeatherDisplay:10.37,2013-01-01 16:40:00,
2013-01-01 10:50:00,21.4,14.4,30.28,NNE,18,1.0,5.0,74,0.00,OVC,,0.00,WeatherDisplay:10.37,2013-01-01 16:50:00,
2013-01-01 11:00:00,21.3,14.0,30.27,NW,308,3.0,8.0,73,0.00,OVC,,0.00,WeatherDisplay:10.37,2013-01-01 17:00:00,
2013-01-01 11:05:00,20.6,13.0,30.27,NW,313,2.0,5.0,72,0.00,OVC,,0.00,WeatherDisplay:10.37,2013-01-01 17:05:00,
2013-01-01 11:10:00,20.2,12.6,30.27,NW,313,2.0,4.0,72,0.00,OVC,,0.00,WeatherDisplay:10.37,2013-01-01 17:10:00,
2013-01-01 11:15:00,20.0,12.4,30.27,NW,313,1.0,6.0,72,0.00,FEW,,0.00,WeatherDisplay:10.37,2013-01-01 17:15:00,
2013-01-01 11:20:00,19.8,12.6,30.27,NW,322,2.0,4.0,73,0.00,FEW,,0.00,WeatherDisplay:10.37,2013-01-01 17:20:00,
2013-01-01 11:30:00,19.7,12.8,30.26,NE,53,1.0,4.0,74,0.00,FEW,,0.00,WeatherDisplay:10.37,2013-01-01 17:30:00,
2013-01-01 11:35:00,20.2,13.2,30.26,North,10,2.0,6.0,74,0.00,FEW,,0.00,WeatherDisplay:10.37,2013-01-01 17:35:00,
2013-01-01 11:40:00,20.4,12.8,30.26,NW,323,2.0,5.0,72,0.00,FEW,,0.00,WeatherDisplay:10.37,2013-01-01 17:40:00,
2013-01-01 11:50:00,21.0,13.4,30.26,North,351,2.0,5.0,72,0.00,FEW,,0.00,WeatherDisplay:10.37,2013-01-01 17:50:00,
2013-01-01 12:00:00,21.0,13.1,30.24,NNW,327,2.0,4.0,71,0.00,FEW,,0.00,WeatherDisplay:10.37,2013-01-01 18:00:00,
2013-01-01 12:05:00,21.0,13.4,30.24,NNW,330,1.0,4.0,72,0.00,OVC,,0.00,WeatherDisplay:10.37,2013-01-01 18:05:00,
2013-01-01 12:10:00,21.2,13.6,30.25,NNW,336,2.0,5.0,72,0.00,OVC,,0.00,WeatherDisplay:10.37,2013-01-01 18:10:00,
2013-01-01 12:20:00,21.2,13.6,30.25,NW,317,3.0,7.0,72,0.01,RA,,0.01,WeatherDisplay:10.37,2013-01-01 18:20:00,
2013-01-01 12:30:00,20.7,12.5,30.24,NW,318,3.0,7.0,70,0.00,OVC,,0.01,WeatherDisplay:10.37,2013-01-01 18:30:00,
2013-01-01 12:35:00,20.8,12.9,30.24,NW,322,3.0,7.0,71,0.00,OVC,,0.01,WeatherDisplay:10.37,2013-01-01 18:35:00,
2013-01-01 12:45:00,21.3,13.0,30.25,NW,326,1.0,6.0,70,0.00,OVC,,0.01,WeatherDisplay:10.37,2013-01-01 18:45:00,
2013-01-01 12:50:00,21.3,12.7,30.24,NW,316,2.0,4.0,69,0.00,OVC,,0.01,WeatherDisplay:10.37,2013-01-01 18:50:00,
2013-01-01 13:00:00,21.9,13.6,30.25,NW,316,3.0,6.0,70,0.00,OVC,,0.01,WeatherDisplay:10.37,2013-01-01 19:00:00,
2013-01-01 13:05:00,22.1,13.8,30.24,NW,317,3.0,7.0,70,0.00,OVC,,0.01,WeatherDisplay:10.37,2013-01-01 19:05:00,
2013-01-01 13:10:00,22.2,13.3,30.24,NW,313,1.0,5.0,68,0.00,OVC,,0.01,WeatherDisplay:10.37,2013-01-01 19:10:00,
2013-01-01 13:15:00,22.4,14.1,30.24,NW,313,2.0,6.0,70,0.00,OVC,,0.01,WeatherDisplay:10.37,2013-01-01 19:15:00,
2013-01-01 13:20:00,22.4,13.4,30.24,WNW,299,5.0,7.0,68,0.00,OVC,,0.01,WeatherDisplay:10.37,2013-01-01 19:20:00,
2013-01-01 13:25:00,22.1,13.1,30.24,NW,311,2.0,4.0,68,0.00,OVC,,0.01,WeatherDisplay:10.37,2013-01-01 19:25:00,
2013-01-01 13:30:00,22.2,13.2,30.24,NW,319,2.0,5.0,68,0.01,RA,,0.02,WeatherDisplay:10.37,2013-01-01 19:30:00,
2013-01-01 13:40:00,22.2,12.9,30.24,NW,313,2.0,6.0,67,0.00,OVC,,0.02,WeatherDisplay:10.37,2013-01-01 19:40:00,
2013-01-01 13:45:00,22.2,12.9,30.24,NW,312,2.0,7.0,67,0.00,OVC,,0.02,WeatherDisplay:10.37,2013-01-01 19:45:00,
2013-01-01 13:55:00,22.2,13.3,30.24,NW,317,1.0,4.0,68,0.00,OVC,,0.02,WeatherDisplay:10.37,2013-01-01 19:55:00,
2013-01-01 14:05:00,22.1,12.8,30.24,WNW,282,1.0,4.0,67,0.00,OVC,,0.02,WeatherDisplay:10.37,2013-01-01 20:05:00,
2013-01-01 14:10:00,22.4,13.4,30.24,WNW,287,2.0,5.0,68,0.01,RA,,0.03,WeatherDisplay:10.37,2013-01-01 20:10:00,
2013-01-01 14:15:00,22.5,13.2,30.23,WNW,294,2.0,5.0,67,0.00,RA,,0.03,WeatherDisplay:10.37,2013-01-01 20:15:00,
2013-01-01 14:20:00,22.4,12.1,30.24,WNW,295,3.0,5.0,64,0.00,OVC,,0.03,WeatherDisplay:10.37,2013-01-01 20:20:00,
2013-01-01 14:25:00,22.4,11.7,30.24,WNW,294,2.0,5.0,63,0.00,OVC,,0.03,WeatherDisplay:10.37,2013-01-01 20:25:00,
2013-01-01 14:30:00,22.6,12.2,30.24,NW,310,2.0,7.0,64,0.00,OVC,,0.03,WeatherDisplay:10.37,2013-01-01 20:30:00,
2013-01-01 14:40:00,22.9,12.2,30.24,NW,306,2.0,8.0,63,0.00,OVC,,0.03,WeatherDisplay:10.37,2013-01-01 20:40:00,
2013-01-01 14:45:00,22.9,12.2,30.24,NW,320,1.0,8.0,63,0.00,OVC,,0.03,WeatherDisplay:10.37,2013-01-01 20:45:00,
2013-01-01 14:50:00,22.7,11.6,30.25,NW,314,3.0,6.0,62,0.00,OVC,,0.03,WeatherDisplay:10.37,2013-01-01 20:50:00,
2013-01-01 14:55:00,22.7,11.6,30.24,NW,311,3.0,7.0,62,0.00,OVC,,0.03,WeatherDisplay:10.37,2013-01-01 20:55:00,
2013-01-01 15:05:00,22.5,11.1,30.24,NNW,336,1.0,4.0,61,0.00,RA,,0.04,WeatherDisplay:10.37,2013-01-01 21:05:00,
2013-01-01 15:10:00,22.5,11.4,30.24,North,352,1.0,4.0,62,0.00,OVC,,0.04,WeatherDisplay:10.37,2013-01-01 21:10:00,
2013-01-01 15:20:00,22.7,11.3,30.24,NNW,336,2.0,4.0,61,0.00,OVC,,0.04,WeatherDisplay:10.37,2013-01-01 21:20:00,
2013-01-01 15:25:00,22.9,11.8,30.23,NNW,329,2.0,5.0,62,0.00,OVC,,0.04,WeatherDisplay:10.37,2013-01-01 21:25:00,
2013-01-01 15:30:00,23.0,11.9,30.23,NNW,333,2.0,6.0,62,0.00,OVC,,0.04,WeatherDisplay:10.37,2013-01-01 21:30:00,
2013-01-01 15:40:00,23.1,11.3,30.23,North,1,3.0,6.0,60,0.00,OVC,,0.04,WeatherDisplay:10.37,2013-01-01 21:40:00,
2013-01-01 15:50:00,22.8,11.0,30.24,North,0,1.0,4.0,60,0.00,OVC,,0.04,WeatherDisplay:10.37,2013-01-01 21:50:00,
2013-01-01 15:59:00,22.6,11.1,30.24,North,0,1.0,4.0,61,0.00,OVC,,0.04,WeatherDisplay:10.37,2013-01-01 21:59:00,
2013-01-01 16:05:00,22.4,11.0,30.24,North,0,1.0,3.0,61,0.00,OVC,,0.04,WeatherDisplay:10.37,2013-01-01 22:05:00,
2013-01-01 16:10:00,22.2,10.8,30.23,North,360,1.0,4.0,61,0.00,OVC,,0.04,WeatherDisplay:10.37,2013-01-01 22:10:00,
2013-01-01 16:20:00,22.1,11.1,30.23,NW,316,2.0,6.0,62,0.00,CLR,,0.04,WeatherDisplay:10.37,2013-01-01 22:20:00,
2013-01-01 16:29:00,22.1,11.1,30.23,NW,316,1.0,4.0,62,0.00,CLR,,0.04,WeatherDisplay:10.37,2013-01-01 22:29:00,
2013-01-01 16:34:00,21.9,11.2,30.23,NW,320,2.0,4.0,63,0.00,CLR,,0.04,WeatherDisplay:10.37,2013-01-01 22:34:00,
2013-01-01 16:40:00,22.0,11.3,30.23,NNW,341,1.0,4.0,63,0.00,CLR,,0.04,WeatherDisplay:10.37,2013-01-01 22:40:00,
2013-01-01 16:50:00,21.7,11.0,30.22,North,6,2.0,4.0,63,0.00,CLR,,0.04,WeatherDisplay:10.37,2013-01-01 22:50:00,
2013-01-01 16:59:00,21.3,10.7,30.23,NNE,27,1.0,3.0,63,0.00,CLR,,0.04,WeatherDisplay:10.37,2013-01-01 22:59:00,
2013-01-01 17:04:00,21.0,10.4,30.23,NNE,28,0.0,3.0,63,0.00,CLR,,0.04,WeatherDisplay:10.37,2013-01-01 23:04:00,
2013-01-01 17:09:00,20.8,10.2,30.23,NNE,27,0.0,1.0,63,0.00,CLR,,0.04,WeatherDisplay:10.37,2013-01-01 23:09:00,
2013-01-01 17:14:00,20.4,10.1,30.23,NNE,28,0.0,1.0,64,0.00,CLR,,0.04,WeatherDisplay:10.37,2013-01-01 23:14:00,
2013-01-01 17:20:00,19.9,10.0,30.23,NNE,28,0.0,0.0,65,0.00,CLR,,0.04,WeatherDisplay:10.37,2013-01-01 23:20:00,
2013-01-01 17:29:00,19.1,9.6,30.23,NNE,28,0.0,0.0,66,0.00,CLR,,0.04,WeatherDisplay:10.37,2013-01-01 23:29:00,
2013-01-01 17:40:00,18.3,9.2,30.23,NNE,28,0.0,2.0,67,0.00,CLR,,0.04,WeatherDisplay:10.37,2013-01-01 23:40:00,
2013-01-01 17:49:00,17.7,9.3,30.23,NNE,27,1.0,2.0,69,0.00,CLR,,0.04,WeatherDisplay:10.37,2013-01-01 23:49:00,
2013-01-01 17:59:00,17.3,9.5,30.23,NNE,27,1.0,2.0,71,0.00,CLR,,0.04,WeatherDisplay:10.37,2013-01-01 23:59:00,
2013-01-01 18:04:00,17.2,9.4,30.22,NNE,27,1.0,2.0,71,0.00,CLR,,0.04,WeatherDisplay:10.37,2013-01-02 00:04:00,
2013-01-01 18:10:00,17.0,9.8,30.22,NNE,27,1.0,2.0,73,0.00,CLR,,0.04,WeatherDisplay:10.37,2013-01-02 00:10:00,
2013-01-01 18:19:00,16.7,9.6,30.22,NNE,27,0.0,2.0,73,0.00,CLR,,0.04,WeatherDisplay:10.37,2013-01-02 00:19:00,
2013-01-01 18:29:00,16.6,9.8,30.22,NNE,27,1.0,3.0,74,0.00,CLR,,0.04,WeatherDisplay:10.37,2013-01-02 00:29:00,
2013-01-01 18:39:00,16.2,9.4,30.21,NNE,27,0.0,2.0,74,0.00,CLR,,0.04,WeatherDisplay:10.37,2013-01-02 00:39:00,
2013-01-01 18:49:00,15.9,9.7,30.23,NNE,27,1.0,3.0,76,0.00,CLR,,0.04,WeatherDisplay:10.37,2013-01-02 00:49:00,
2013-01-01 18:54:00,15.9,9.7,30.23,NNE,27,1.0,3.0,76,0.00,CLR,,0.04,WeatherDisplay:10.37,2013-01-02 00:54:00,
2013-01-01 19:04:00,15.7,9.5,30.23,NNE,27,1.0,2.0,76,0.00,CLR,,0.04,WeatherDisplay:10.37,2013-01-02 01:04:00,
2013-01-01 19:09:00,15.6,9.3,30.23,NNE,27,1.0,2.0,76,0.00,CLR,,0.04,WeatherDisplay:10.37,2013-01-02 01:09:00,
2013-01-01 19:14:00,15.3,9.1,30.23,NNE,28,1.0,2.0,76,0.00,CLR,,0.04,WeatherDisplay:10.37,2013-01-02 01:14:00,
2013-01-01 19:19:00,15.1,8.9,30.22,NNE,28,0.0,1.0,76,0.00,CLR,,0.04,WeatherDisplay:10.37,2013-01-02 01:19:00,
2013-01-01 19:29:00,14.5,8.3,30.23,NNE,28,0.0,0.0,76,0.00,CLR,,0.04,WeatherDisplay:10.37,2013-01-02 01:29:00,
2013-01-01 19:34:00,14.1,7.9,30.24,NNE,28,1.0,2.0,76,0.00,CLR,,0.04,WeatherDisplay:10.37,2013-01-02 01:34:00,
2013-01-01 19:39:00,14.0,7.8,30.23,NNE,28,0.0,2.0,76,0.00,CLR,,0.04,WeatherDisplay:10.37,2013-01-02 01:39:00,
2013-01-01 19:49:00,14.1,8.5,30.23,NNE,28,1.0,2.0,78,0.00,CLR,,0.04,WeatherDisplay:10.37,2013-01-02 01:49:00,
2013-01-01 19:59:00,14.1,8.5,30.24,NNE,28,1.0,3.0,78,0.00,CLR,,0.04,WeatherDisplay:10.37,2013-01-02 01:59:00,
2013-01-01 20:04:00,14.1,8.5,30.24,NNE,27,1.0,3.0,78,0.00,CLR,,0.04,WeatherDisplay:10.37,2013-01-02 02:04:00,
2013-01-01 20:09:00,14.2,8.6,30.24,NNE,27,1.0,3.0,78,0.00,CLR,,0.04,WeatherDisplay:10.37,2013-01-02 02:09:00,
2013-01-01 20:14:00,14.1,8.8,30.25,NNE,27,1.0,2.0,79,0.00,CLR,,0.04,WeatherDisplay:10.37,2013-01-02 02:14:00,
2013-01-01 20:19:00,14.0,8.4,30.24,NNE,27,1.0,2.0,78,0.00,CLR,,0.04,WeatherDisplay:10.37,2013-01-02 02:19:00,
2013-01-01 20:24:00,13.8,8.2,30.24,NNE,27,1.0,2.0,78,0.00,CLR,,0.04,WeatherDisplay:10.37,2013-01-02 02:24:00,
2013-01-01 20:29:00,13.6,8.0,30.23,NNE,27,1.0,4.0,78,0.00,CLR,,0.04,WeatherDisplay:10.37,2013-01-02 02:29:00,
2013-01-01 20:34:00,13.5,7.9,30.23,NNE,28,1.0,3.0,78,0.00,CLR,,0.04,WeatherDisplay:10.37,2013-01-02 02:34:00,
2013-01-01 20:44:00,13.1,7.5,30.24,NNE,28,0.0,2.0,78,0.00,CLR,,0.04,WeatherDisplay:10.37,2013-01-02 02:44:00,
2013-01-01 20:49:00,12.8,7.2,30.23,NNE,28,0.0,2.0,78,0.00,CLR,,0.04,WeatherDisplay:10.37,2013-01-02 02:49:00,
2013-01-01 20:54:00,12.7,7.1,30.23,NNE,28,0.0,2.0,78,0.00,CLR,,0.04,WeatherDisplay:10.37,2013-01-02 02:54:00,
2013-01-01 21:04:00,12.3,6.8,30.23,NNE,28,0.0,1.0,78,0.00,CLR,,0.04,WeatherDisplay:10.37,2013-01-02 03:04:00,
2013-01-01 21:09:00,12.1,6.9,30.23,NNE,28,1.0,5.0,79,0.00,CLR,,0.04,WeatherDisplay:10.37,2013-01-02 03:09:00,
2013-01-01 21:14:00,12.1,7.1,30.23,NNE,28,1.0,3.0,80,0.00,CLR,,0.04,WeatherDisplay:10.37,2013-01-02 03:14:00,
2013-01-01 21:24:00,12.8,7.8,30.23,SSE,162,1.0,3.0,80,0.00,CLR,,0.04,WeatherDisplay:10.37,2013-01-02 03:24:00,
2013-01-01 21:29:00,13.0,8.0,30.22,SSW,195,1.0,4.0,80,0.00,CLR,,0.04,WeatherDisplay:10.37,2013-01-02 03:29:00,
2013-01-01 21:34:00,12.8,7.8,30.22,SSW,199,0.0,3.0,80,0.00,CLR,,0.04,WeatherDisplay:10.37,2013-01-02 03:34:00,
2013-01-01 21:39:00,12.8,7.8,30.22,SSW,201,0.0,2.0,80,0.00,CLR,,0.04,WeatherDisplay:10.37,2013-01-02 03:39:00,
2013-01-01 21:49:00,12.5,7.5,30.22,SSW,201,0.0,3.0,80,0.00,CLR,,0.04,WeatherDisplay:10.37,2013-01-02 03:49:00,
2013-01-01 21:54:00,12.3,7.3,30.22,SSW,202,1.0,4.0,80,0.00,CLR,,0.04,WeatherDisplay:10.37,2013-01-02 03:54:00,
2013-01-01 22:04:00,12.1,7.1,30.22,SSW,207,1.0,3.0,80,0.00,CLR,,0.04,WeatherDisplay:10.37,2013-01-02 04:04:00,
2013-01-01 22:09:00,12.1,7.2,30.22,SSW,208,1.0,3.0,80,0.00,CLR,,0.04,WeatherDisplay:10.37,2013-01-02 04:09:00,
2013-01-01 22:19:00,12.0,7.0,30.22,SSW,208,0.0,1.0,80,0.00,CLR,,0.04,WeatherDisplay:10.37,2013-01-02 04:19:00,
2013-01-01 22:29:00,12.0,7.3,30.22,SSW,208,0.0,2.0,81,0.00,CLR,,0.04,WeatherDisplay:10.37,2013-01-02 04:29:00,
2013-01-01 22:34:00,12.0,7.3,30.21,SSW,208,0.0,3.0,81,0.00,CLR,,0.04,WeatherDisplay:10.37,2013-01-02 04:34:00,
2013-01-01 22:39:00,12.0,7.3,30.20,SSW,208,0.0,1.0,81,0.00,CLR,,0.04,WeatherDisplay:10.37,2013-01-02 04:39:00,
2013-01-01 22:49:00,11.8,7.1,30.21,SSW,207,0.0,1.0,81,0.00,CLR,,0.04,WeatherDisplay:10.37,2013-01-02 04:49:00,
2013-01-01 22:59:00,12.0,7.3,30.22,SSW,210,1.0,3.0,81,0.00,CLR,,0.04,WeatherDisplay:10.37,2013-01-02 04:59:00,
2013-01-01 23:04:00,11.8,7.1,30.22,SSW,213,1.0,2.0,81,0.00,CLR,,0.04,WeatherDisplay:10.37,2013-01-02 05:04:00,
2013-01-01 23:09:00,11.7,7.0,30.22,SW,216,0.0,3.0,81,0.00,CLR,,0.04,WeatherDisplay:10.37,2013-01-02 05:09:00,
2013-01-01 23:19:00,11.6,6.9,30.22,SW,216,1.0,2.0,81,0.00,CLR,,0.04,WeatherDisplay:10.37,2013-01-02 05:19:00,
2013-01-01 23:24:00,11.7,7.0,30.23,SW,219,1.0,4.0,81,0.00,CLR,,0.04,WeatherDisplay:10.37,2013-01-02 05:24:00,
2013-01-01 23:29:00,11.8,7.4,30.23,SW,227,2.0,5.0,82,0.00,CLR,,0.04,WeatherDisplay:10.37,2013-01-02 05:29:00,
2013-01-01 23:34:00,12.0,7.6,30.23,SW,230,1.0,5.0,82,0.00,CLR,,0.04,WeatherDisplay:10.37,2013-01-02 05:34:00,
2013-01-01 23:39:00,12.1,7.4,30.23,SW,230,2.0,4.0,81,0.00,CLR,,0.04,WeatherDisplay:10.37,2013-01-02 05:39:00,
2013-01-01 23:44:00,12.3,7.9,30.23,SW,229,2.0,7.0,82,0.00,CLR,,0.04,WeatherDisplay:10.37,2013-01-02 05:44:00,
2013-01-01 23:49:00,12.5,7.8,30.22,SW,228,2.0,5.0,81,0.00,CLR,,0.04,WeatherDisplay:10.37,2013-01-02 05:49:00,
2013-01-01 23:59:00,12.7,8.0,30.21,WSW,240,1.0,4.0,81,0.00,RA,,0.00,WeatherDisplay:10.37,2013-01-02 05:59:00,